SCP
5 3 6 4 3 2 2 1 1 1 1 2 2 2 2 1 0 1 0 0 0 0
3 4 3 3 3 2 1 1 1 1 2 2 1 1 1 0 1 0 0 0 0 0
3 3 2 3 3 3 2 1 1 1 1 1 1 1 0 0 0 0 0 0 0 0
2 3 3 3 2 3 3 1 1 1 1 1 1 1 0 0 0 0 0 0 0 0
2 2 2 2 3 2 2 1 1 0 1 0 0 0 0 0 0 0 0 0 0 0
1 1 1 1 1 1 1 1 0 0 0 0 0 0 0 0 0 0 0 0 0 0
1 1 1 1 0 0 0 0 0 1 0 0 0 0 -0 0 0 0 0 0 0 0
0 0 0 0 0 0 0 0 0 0 0 0 0 0 0 0 0 0 0 0 0 0
0 0 0 0 0 0 0 0 0 0 0 0 0 0 0 0 0 0 0 0 0 0
0 0 0 0 0 0 0 0 0 0 0 0 0 0 0 0 0 0 0 0 0 0
0 0 0 0 0 0 0 0 0 0 0 0 0 0 0 0 0 0 0 0 0 0
0 0 0 0 0 0 0 0 0 0 0 0 0 0 0 0 0 0 0 0 0 0
-0 0 0 0 0 0 0 0 0 0 0 0 0 0 0 0 0 0 0 0 0 0
0 0 0 0 0 0 0 0 0 0 0 0 0 0 0 0 0 0 0 0 0 0
Wind_Speed_500mb
70 57 50 60 52 46 40 47 46 44 38 31 29 34 32 26 24 22 20 22 25 24
55 54 54 52 45 42 28 39 41 43 37 34 29 31 28 19 19 19 16 16 23 24
62 53 49 52 52 45 43 44 41 38 34 29 32 26 19 16 13 10 12 17 18 19
56 55 58 55 48 47 44 39 29 33 31 27 24 21 18 20 12 10 18 17 16 14
56 55 55 56 52 54 50 35 31 31 28 28 25 20 21 20 13 16 18 16 18 17
53 47 52 49 47 40 38 35 30 28 27 26 20 20 18 14 20 18 14 18 18 16
50 50 49 45 41 37 35 32 28 27 29 25 24 19 18 22 19 19 24 15 10 12
48 47 47 43 38 33 31 32 32 29 28 24 22 22 23 22 18 20 15 13 9 9
44 40 41 38 36 37 34 29 29 30 29 29 30 29 25 21 18 18 18 16 13 4
43 44 37 40 37 35 32 28 31 30 31 29 22 24 26 20 17 20 16 16 10 9
42 41 39 28 37 38 33 32 36 34 33 29 27 21 15 17 16 20 19 19 12 10
40 38 36 35 31 34 39 37 34 32 30 24 26 20 15 16 14 16 14 17 14 12
38 36 37 34 29 33 29 30 29 29 24 20 24 20 17 18 16 19 19 13 13 16
37 39 32 30 28 25 29 33 33 30 28 25 19 21 20 18 17 12 12 9 10 13
Wind_Direction_500mb
211 200 196 200 199 204 203 203 194 195 200 201 206 215 234 235 235 242 224 220 215 231
197 187 192 197 189 198 193 187 189 196 195 198 209 226 232 232 231 213 215 221 219 235
181 183 186 176 179 178 180 189 193 195 198 204 210 219 215 211 208 212 209 227 230 241
164 175 182 173 175 177 181 186 187 182 193 207 218 208 217 193 199 204 227 240 236 255
166 178 180 175 176 182 183 184 175 183 199 209 205 222 214 184 200 202 243 243 241 265
170 173 165 171 181 186 176 174 180 188 201 189 204 194 181 179 201 218 250 258 263 251
165 165 167 172 173 168 178 171 179 177 183 190 195 200 180 202 202 205 233 250 239 270
161 165 169 175 168 169 171 175 167 176 188 176 173 178 192 194 208 221 216 193 196 236
167 164 165 164 169 169 175 177 182 180 175 172 197 190 195 202 211 207 189 199 217 287
161 167 165 169 170 168 177 176 177 172 181 187 194 185 206 227 196 178 178 172 192 128
164 167 172 175 171 172 173 184 180 186 191 195 196 182 181 190 186 183 172 181 186 151
166 167 169 174 172 187 190 187 187 185 179 183 178 176 177 171 179 165 149 170 181 175
167 168 174 173 186 199 199 191 178 173 173 180 182 173 169 172 168 174 167 194 192 207
163 168 175 179 187 189 178 174 168 169 170 189 191 183 171 166 148 141 159 197 210 205
Wind_Speed_850mb
70 57 50 60 52 46 40 47 46 44 38 31 29 34 32 26 24 22 20 22 25 24
55 54 54 52 45 42 28 39 41 43 37 34 29 31 28 19 19 19 16 16 23 24
62 53 49 52 52 45 43 44 41 38 34 29 32 26 19 16 13 10 12 17 18 19
56 55 58 55 48 47 44 39 29 33 31 27 24 21 18 20 12 10 18 17 16 14
56 55 55 56 52 54 50 35 31 31 28 28 25 20 21 20 13 16 18 16 18 17
53 47 52 49 47 40 38 35 30 28 27 26 20 20 18 14 20 18 14 18 18 16
50 50 49 45 41 37 35 32 28 27 29 25 24 19 18 22 19 19 24 15 10 12
48 47 47 43 38 33 31 32 32 29 28 24 22 22 23 22 18 20 15 13 9 9
44 40 41 38 36 37 34 29 29 30 29 29 30 29 25 21 18 18 18 16 13 4
43 44 37 40 37 35 32 28 31 30 31 29 22 24 26 20 17 20 16 16 10 9
42 41 39 28 37 38 33 32 36 34 33 29 27 21 15 17 16 20 19 19 12 10
40 38 36 35 31 34 39 37 34 32 30 24 26 20 15 16 14 16 14 17 14 12
38 36 37 34 29 33 29 30 29 29 24 20 24 20 17 18 16 19 19 13 13 16
37 39 32 30 28 25 29 33 33 30 28 25 19 21 20 18 17 12 12 9 10 13
Wind_Direction_850mb
211 200 196 200 199 204 203 203 194 195 200 201 206 215 234 235 235 242 224 220 215 231
197 187 192 197 189 198 193 187 189 196 195 198 209 226 232 232 231 213 215 221 219 235
181 183 186 176 179 178 180 189 193 195 198 204 210 219 215 211 208 212 209 227 230 241
164 175 182 173 175 177 181 186 187 182 193 207 218 208 217 193 199 204 227 240 236 255
166 178 180 175 176 182 183 184 175 183 199 209 205 222 214 184 200 202 243 243 241 265
170 173 165 171 181 186 176 174 180 188 201 189 204 194 181 179 201 218 250 258 263 251
165 165 167 172 173 168 178 171 179 177 183 190 195 200 180 202 202 205 233 250 239 270
161 165 169 175 168 169 171 175 167 176 188 176 173 178 192 194 208 221 216 193 196 236
167 164 165 164 169 169 175 177 182 180 175 172 197 190 195 202 211 207 189 199 217 287
161 167 165 169 170 168 177 176 177 172 181 187 194 185 206 227 196 178 178 172 192 128
164 167 172 175 171 172 173 184 180 186 191 195 196 182 181 190 186 183 172 181 186 151
166 167 169 174 172 187 190 187 187 185 179 183 178 176 177 171 179 165 149 170 181 175
167 168 174 173 186 199 199 191 178 173 173 180 182 173 169 172 168 174 167 194 192 207
163 168 175 179 187 189 178 174 168 169 170 189 191 183 171 166 148 141 159 197 210 205